Regional Weather Roundup
Issued by NWS

Home | Current Version | Previous Version | Graphics & Text | Print | Product List | Glossary On
Versions: 1 2 3 4 5 6 7 8 9 10 11 12 13 14 15 16 17 18 19 20 21 22 23 24 25 26 27 28 29 30 31 32 33 34 35 36 37 38 39 40 41 42 43 44 45 46 47 48 49 50
000
ASUS43 KTOP 110008
RWRKS

WEATHER ROUNDUP FOR KANSAS
NATIONAL WEATHER SERVICE GOODLAND KS
600 PM CST SUN DEC 10 2017

NOTE:  "FAIR" INDICATES FEW OR NO CLOUDS BELOW 12,000 FEET WITH NO
SIGNIFICANT WEATHER AND/OR OBSTRUCTIONS TO VISIBILITY.

KSZ001>006-013>018-027>032-041>047-110100-
NORTHWEST KANSAS

CITY           SKY/WX    TMP DP  RH WIND       PRES   REMARKS
GOODLAND       CLEAR     39   3  22 W8        30.27F
6HR MIN TEMP:  39; 6HR MAX TEMP:  63;

HAYS           CLEAR     52  14  22 W8        30.22S
HILL CITY      CLEAR     52  15  23 W8        30.23R
6HR MIN TEMP:  52; 6HR MAX TEMP:  68;

RUSSELL        CLEAR     49  15  25 W9        30.19S
6HR MIN TEMP:  49; 6HR MAX TEMP:  68;

$$

KSZ061>065-074>080-084>089-110100-
SOUTHWEST KANSAS

CITY           SKY/WX    TMP DP  RH WIND       PRES   REMARKS
DODGE CITY     CLEAR     48   8  19 W9        30.27S
6HR MIN TEMP:  47; 6HR MAX TEMP:  67;

ELKHART        CLEAR     56  14  19 CALM      30.33S HAZE
GARDEN CITY    CLEAR     54   6  14 NW5       30.28F
6HR MIN TEMP:  53; 6HR MAX TEMP:  65;

GREAT BEND     CLEAR     48  14  25 W9        30.22F
LIBERAL        CLEAR     45   6  20 SW5       30.31F
PRATT          CLEAR     49  14  24 W8        30.24S
6HR MIN TEMP:  48; 6HR MAX TEMP:  66;

$$

KSZ066>073-081>083-090>101-110100-
SOUTHEAST KANSAS

CITY           SKY/WX    TMP DP  RH WIND       PRES   REMARKS
CHANUTE        CLEAR     49  22  34 W6        30.18R
6HR MIN TEMP:  49; 6HR MAX TEMP:  62;

COFFEYVILLE    CLEAR     53  23  31 W7        30.19R
6HR MIN TEMP:  53; 6HR MAX TEMP:  65;

HUTCHINSON     CLEAR     51  14  22 NW5       30.20S
6HR MIN TEMP:  50; 6HR MAX TEMP:  68;

MEDICINE LODGE   N/A     58  16  19 CALM      30.23F
NEWTON         CLOUDY    57  16  20 W5        30.20S
PARSONS        CLEAR     46  22  38 W3        30.19R
6HR MIN TEMP:  46; 6HR MAX TEMP:  64;

WICHITA INTL   PTCLDY    51  17  26 W7        30.20R
6HR MIN TEMP:  51; 6HR MAX TEMP:  67;

WICHITA JABRA  CLOUDY    55  16  21 W6        30.19S
6HR MIN TEMP:  55; 6HR MAX TEMP:  65;

WICHITA MCCONL CLOUDY    59  17  19 W5        30.20R
WINFIELD       CLEAR     54  19  25 W8        30.22R
6HR MIN TEMP:  51; 6HR MAX TEMP:  66;

$$

KSZ007>012-019>026-033>040-048>060-102>105-110100-
NORTHEAST KANSAS

CITY           SKY/WX    TMP DP  RH WIND       PRES   REMARKS
CONCORDIA      CLEAR     50  14  23 SW8       30.15S
6HR MIN TEMP:  50; 6HR MAX TEMP:  65;

EMPORIA        CLEAR     52  18  26 W5        30.16F
6HR MIN TEMP:  50; 6HR MAX TEMP:  62;

LAWRENCE       CLEAR     43  23  45 CALM      30.14S
6HR MIN TEMP:  43; 6HR MAX TEMP:  60;

MANHATTAN      CLEAR     54  19  25 W8        30.15S
6HR MIN TEMP:  50; 6HR MAX TEMP:  64;

MARYSVILLE     CLEAR     54  19  26 W5        30.13S
OLATHE IND     CLEAR     47  24  40 W5        30.15R
6HR MIN TEMP:  46; 6HR MAX TEMP:  57;

OLATHE EXE     CLEAR     48  24  39 CALM      30.14R
6HR MIN TEMP:  47; 6HR MAX TEMP:  55;

SALINA         CLEAR     51  15  23 W8        30.18F
6HR MIN TEMP:  50; 6HR MAX TEMP:  68;

TOPEKA BILLARD CLEAR     52  22  30 W5        30.14S
6HR MIN TEMP:  52; 6HR MAX TEMP:  60;

TOPEKA FORBES  CLEAR     45  21  38 W7        30.14S
6HR MIN TEMP:  45; 6HR MAX TEMP:  61;

$$




USA.gov is the U.S. government's official web portal to all federal, state and local government web resources and services.